FW8731 Weather Reports


Display with metric or nautical units.
time (UTC)temp
F
wind
direction
speed
MPH
gust
MPH
rain 1hr
in
rain 24hr
in
rain mn
in
humidity
%
barometer
mb
20260509020043 79 45 1.0 9.0 0.00 0.00 0.00 41 1017.6
20260509014543 80 67 0.0 3.0 0.00 0.00 0.00 42 1017.3
20260509013047 81 0 0.0 5.0 0.00 0.00 0.00 40 1017.2
20260509011553 81 0 1.0 6.0 0.00 0.00 0.00 40 1017.1
20260509010040 82 61 1.0 5.0 0.00 0.00 0.00 39 1017.2
20260509004542 82 30 2.0 7.0 0.00 0.00 0.00 36 1017.1
20260509003043 81 201 3.0 8.0 0.00 0.00 0.00 31 1017.2
20260509001542 81 213 3.0 8.0 0.00 0.00 0.00 30 1017.2
20260509000040 81 183 3.0 9.0 0.00 0.00 0.00 30 1017.4
20260508234536 82 0 2.0 5.0 0.00 0.00 0.00 30 1017.4
20260508233039 82 288 2.0 4.0 0.00 0.00 0.00 29 1017.6
20260508231554 81 294 2.0 9.0 0.00 0.00 0.00 29 1017.8
20260508230039 80 0 3.0 11.0 0.00 0.00 0.00 32 1018.0
20260508224541 80 235 4.0 11.0 0.00 0.00 0.00 33 1018.1
20260508223042 80 207 3.0 10.0 0.00 0.00 0.00 31 1018.1
20260508221543 79 190 3.0 13.0 0.00 0.00 0.00 32 1018.2
20260508220044 80 0 2.0 9.0 0.00 0.00 0.00 28 1018.3
20260508214551 79 188 4.0 9.0 0.00 0.00 0.00 30 1018.6
20260508213041 79 277 3.0 11.0 0.00 0.00 0.00 32 1018.6
20260508211538 79 275 2.0 9.0 0.00 0.00 0.00 28 1018.8
20260508210044 78 214 3.0 10.0 0.00 0.00 0.00 28 1018.7
20260508204545 77 310 4.0 9.0 0.00 0.00 0.00 32 1018.7
20260508203045 77 184 3.0 9.0 0.00 0.00 0.00 28 1019.0
20260508201543 76 215 2.0 7.0 0.00 0.00 0.00 27 1019.1
20260508200053 75 198 2.0 10.0 0.00 0.00 0.00 28 1019.1
20260508194543 75 157 2.0 8.0 0.00 0.00 0.00 25 1019.1
20260508193057 74 221 2.0 8.0 0.00 0.00 0.00 27 1019.4
20260508191545 73 192 2.0 6.0 0.00 0.00 0.00 35 1019.7
20260508190043 72 0 1.0 6.0 0.00 0.00 0.00 37 1019.8
20260508184543 71 208 0.0 7.0 0.00 0.00 0.00 42 1019.8
20260508183048 70 0 1.0 3.0 0.00 0.00 0.00 40 1019.9
20260508181557 69 207 2.0 7.0 0.00 0.00 0.00 38 1020.0
20260508180044 68 190 3.0 6.0 0.00 0.00 0.00 44 1020.1
20260508174542 67 187 1.0 4.0 0.00 0.00 0.00 52 1020.2
20260508173039 65 0 0.0 4.0 0.00 0.00 0.00 54 1020.5
20260508171545 63 179 1.0 5.0 0.00 0.00 0.00 59 1020.6
20260508170043 61 83 0.0 2.0 0.00 0.00 0.00 65 1020.4
20260508164545 60 177 0.0 3.0 0.00 0.00 0.00 67 1020.5
20260508163047 58 0 0.0 3.0 0.00 0.00 0.00 66 1020.3
20260508161542 56 171 0.0 2.0 0.00 0.00 0.00 74 1020.6
20260508154535 52 0 0.0 3.0 0.00 0.00 0.00 82 1020.6
20260508153047 49 140 0.0 2.0 0.00 0.00 0.00 87 1020.6
20260508151546 47 0 1.0 2.0 0.00 0.00 0.00 92 1020.9
20260508150040 46 0 0.0 1.0 0.00 0.00 0.00 93 1020.8
20260508144537 45 0 0.0 0.0 0.00 0.00 0.00 93 1020.7
20260508143056 44 0 0.0 0.0 0.00 0.00 0.00 92 1020.6
20260508141550 44 0 0.0 1.0 0.00 0.00 0.00 92 1020.3
20260508140046 44 0 0.0 0.0 0.00 0.00 0.00 92 1020.3
20260508134542 44 0 0.0 2.0 0.00 0.00 0.00 91 1020.1
20260508133043 44 0 0.0 1.0 0.00 0.00 0.00 91 1019.8
20260508131543 44 0 0.0 2.0 0.00 0.00 0.00 91 1019.7
20260508130052 44 0 0.0 1.0 0.00 0.00 0.00 91 1019.7
20260508124544 45 0 0.0 1.0 0.00 0.00 0.00 91 1019.6
20260508123040 45 0 0.0 0.0 0.00 0.00 0.00 91 1019.6
20260508121556 45 0 0.0 2.0 0.00 0.00 0.00 91 1019.6
20260508120037 45 0 0.0 0.0 0.00 0.00 0.00 90 1019.3
20260508114542 45 0 0.0 1.0 0.00 0.00 0.00 90 1019.3
20260508113042 46 0 0.0 1.0 0.00 0.00 0.00 89 1019.1
20260508111541 46 0 0.0 1.0 0.00 0.00 0.00 89 1018.8
20260508110045 47 0 0.0 2.0 0.00 0.00 0.00 89 1018.7
20260508104543 47 0 0.0 1.0 0.00 0.00 0.00 89 1018.6
20260508103045 48 0 0.0 2.0 0.00 0.00 0.00 88 1018.6
20260508101542 48 0 0.0 0.0 0.00 0.00 0.00 88 1018.6
20260508100041 48 0 0.0 1.0 0.00 0.00 0.00 87 1018.5
20260508094538 49 0 0.0 1.0 0.00 0.00 0.00 87 1018.4
20260508093036 49 0 0.0 2.0 0.00 0.00 0.00 85 1018.2
20260508091545 50 0 0.0 1.0 0.00 0.00 0.00 84 1018.2
20260508090044 50 0 0.0 0.0 0.00 0.00 0.00 84 1018.1
20260508084542 51 0 0.0 2.0 0.00 0.00 0.00 82 1018.0
20260508083116 52 0 0.0 1.0 0.00 0.00 0.00 80 1017.9
20260508081548 53 0 0.0 1.0 0.00 0.00 0.00 80 1017.9
20260508080053 54 0 0.0 2.0 0.00 0.00 0.00 78 1017.9
20260508074544 54 0 0.0 1.0 0.00 0.00 0.00 79 1018.0
20260508073047 56 333 0.0 2.0 0.00 0.00 0.00 77 1017.9
20260508071542 57 0 1.0 3.0 0.00 0.00 0.00 76 1017.8
20260508070047 58 0 0.0 2.0 0.00 0.00 0.00 75 1017.7
20260508064603 58 0 0.0 2.0 0.00 0.00 0.00 74 1017.8
20260508063045 59 340 0.0 3.0 0.00 0.00 0.00 75 1017.6
20260508061543 60 350 1.0 3.0 0.00 0.00 0.00 74 1017.6
20260508060039 61 290 0.0 3.0 0.00 0.00 0.00 72 1017.4
20260508054540 60 89 1.0 4.0 0.00 0.00 0.00 74 1017.1
20260508053035 61 127 2.0 5.0 0.00 0.00 0.00 73 1017.1
20260508051542 62 0 1.0 3.0 0.00 0.00 0.00 70 1016.8
20260508050049 63 0 0.0 2.0 0.00 0.00 0.00 69 1016.7
20260508044542 64 0 0.0 3.0 0.00 0.00 0.00 66 1016.4
20260508043037 65 0 0.0 2.0 0.00 0.00 0.00 63 1016.2
20260508041535 66 195 0.0 3.0 0.00 0.00 0.00 60 1015.9
20260508040041 68 196 1.0 3.0 0.00 0.00 0.00 56 1015.7
20260508034542 70 0 0.0 2.0 0.00 0.00 0.00 51 1015.4
20260508033036 72 82 0.0 2.0 0.00 0.00 0.00 45 1015.0
20260508031544 74 81 0.0 4.0 0.00 0.00 0.00 39 1014.6
20260508030055 77 112 2.0 4.0 0.00 0.00 0.00 34 1014.5
20260508024553 78 0 0.0 17.0 0.00 0.00 0.00 28 1014.6
20260508023042 79 159 1.0 8.0 0.00 0.00 0.00 28 1014.4
20260508021541 80 231 5.0 11.0 0.00 0.00 0.00 27 1014.3